Juneau, WI

8:55 AM CST on February 19, 2017 (GMT -0600)
Dodge County

Weather History for KUNU - May, 2013

Change the Weather History Date:

Wednesday, May 1, 2013

  Actual Average Record
Temperature  
Mean Temperature 65 °F -  
Max Temperature 78 °F 61 °F 80 °F (2001)
Min Temperature 51 °F 42 °F 25 °F (1978)
Growing Degree Days 15 (Base 50)    
Moisture  
Dew Point 45 °F    
Average Humidity 48    
Maximum Humidity 63    
Minimum Humidity 30    
Precipitation  
Precipitation 0.00 in - - ()
Sea Level Pressure  
Sea Level Pressure 30.08 in    
Wind  
Wind Speed 8 mph (NNE)    
Max Wind Speed 17 mph    
Max Gust Speed 24 mph    
Visibility 10 miles    
Events      
Averages and records for this station are not official NWS values.
T = Trace of Precipitation, MM = Missing Value Source: NWS Daily Summary

Daily Weather History Graph

Daily Weather History Graph

Search for Another Location

Airport or City:

Trip Planner

Search our weather history database for the weather conditions in past years. The results will help you decide how hot, cold, wet, or windy it might be!

Date:

Astronomy

May. 01, 2013 Rise Set
Actual Time 5:47 AM CDT 7:57 PM CDT
Civil Twilight 5:16 AM CDT 8:28 PM CDT
Nautical Twilight 4:37 AM CDT 9:07 PM CDT
Astronomical Twilight 3:54 AM CDT 9:50 PM CDT
Moon 1:06 AM CDT (5/1) 11:25 AM CDT (5/1)
Length of Visible Light 15h 12m
Length of Day
14h 09m
Waning Gibbous, 59% of the Moon is Illuminated
May 1
Waning Gibbous
May 2
Last Quarter
May 9
New
May 17
First Quarter
May 24
Full

Hourly Weather History & Observations

Time (CDT) Temp. Dew Point Humidity Pressure Visibility Wind Dir Wind Speed Gust Speed Precip Events Conditions
12:15 AM 69.8 °F 46.4 °F 43% 29.91 in 10.0 mi South 16.1 mph 20.7 mph N/A   Clear
12:35 AM 69.8 °F 46.4 °F 43% 29.92 in 10.0 mi South 12.7 mph - N/A   Clear
12:55 AM 69.8 °F 46.4 °F 43% 29.92 in 10.0 mi South 12.7 mph 17.3 mph N/A   Clear
1:15 AM 68.0 °F 48.2 °F 49% 29.93 in 10.0 mi South 11.5 mph - N/A   Clear
1:35 AM 68.0 °F 48.2 °F 49% 29.93 in 10.0 mi South 11.5 mph - N/A   Clear
1:55 AM 68.0 °F 48.2 °F 49% 29.94 in 10.0 mi SW 4.6 mph - N/A   Clear
2:15 AM 66.2 °F 46.4 °F 49% 29.95 in 10.0 mi WNW 4.6 mph - N/A   Clear
2:35 AM 60.8 °F 42.8 °F 52% 29.96 in 10.0 mi NNW 9.2 mph - N/A   Clear
3:15 AM 60.8 °F 39.2 °F 45% 29.97 in 10.0 mi North 8.1 mph - N/A   Clear
3:35 AM 59.0 °F 39.2 °F 48% 29.97 in 10.0 mi NNE 8.1 mph - N/A   Clear
3:55 AM 59.0 °F 39.2 °F 48% 29.97 in 10.0 mi Calm Calm - N/A   Clear
4:15 AM 59.0 °F 41.0 °F 51% 29.97 in 10.0 mi NE 4.6 mph - N/A   Clear
4:35 AM 55.4 °F 41.0 °F 58% 29.98 in 10.0 mi ENE 4.6 mph - N/A   Clear
4:55 AM 55.4 °F 41.0 °F 58% 30.00 in 10.0 mi West 3.5 mph - N/A   Clear
5:15 AM 55.4 °F 41.0 °F 58% 30.00 in 10.0 mi Calm Calm - N/A   Clear
5:35 AM 55.4 °F 41.0 °F 58% 30.00 in 10.0 mi North 5.8 mph - N/A   Clear
5:55 AM 55.4 °F 41.0 °F 58% 30.02 in 10.0 mi NNE 4.6 mph - N/A   Scattered Clouds
6:15 AM 55.4 °F 41.0 °F 58% 30.02 in 10.0 mi NNE 3.5 mph - N/A   Scattered Clouds
6:35 AM 55.4 °F 42.8 °F 63% 30.04 in 10.0 mi North 4.6 mph - N/A   Mostly Cloudy
7:15 AM 55.4 °F 42.8 °F 63% 30.06 in 10.0 mi NW 5.8 mph - N/A   Clear
7:35 AM 57.2 °F 42.8 °F 59% 30.06 in 10.0 mi North 8.1 mph - N/A   Clear
8:15 AM 59.0 °F 42.8 °F 55% 30.07 in 10.0 mi NNW 6.9 mph - N/A   Clear
8:35 AM 60.8 °F 44.6 °F 55% 30.07 in 10.0 mi NNW 6.9 mph - N/A   Clear
8:55 AM 60.8 °F 42.8 °F 52% 30.08 in 10.0 mi NNE 5.8 mph - N/A   Clear
9:15 AM 62.6 °F 42.8 °F 48% 30.09 in 10.0 mi NNW 5.8 mph - N/A   Clear
9:35 AM 62.6 °F 44.6 °F 52% 30.09 in 10.0 mi NNW 4.6 mph - N/A   Clear
9:55 AM 64.4 °F 44.6 °F 49% 30.09 in 10.0 mi Calm Calm - N/A   Clear
10:15 AM 66.2 °F 46.4 °F 49% 30.10 in 10.0 mi SW 3.5 mph - N/A   Clear
10:35 AM 68.0 °F 46.4 °F 46% 30.10 in 10.0 mi Calm Calm - N/A   Clear
11:15 AM 68.0 °F 46.4 °F 46% 30.10 in 10.0 mi South 3.5 mph - N/A   Clear
12:15 PM 70.7 °F 47.8 °F 44% 30.10 in 10.0 mi Calm Calm - N/A   Clear
12:35 PM 72.7 °F 48.7 °F 43% 30.10 in 10.0 mi ESE 8.1 mph - N/A   Clear
12:55 PM 73.0 °F 49.1 °F 43% 30.10 in 10.0 mi South 9.2 mph - N/A   Clear
1:15 PM 73.4 °F 47.3 °F 39% 30.10 in 10.0 mi SSE 6.9 mph - N/A   Clear
1:35 PM 74.5 °F 48.0 °F 39% 30.10 in 10.0 mi WSW 6.9 mph - N/A   Clear
2:15 PM 75.2 °F 46.2 °F 36% 30.10 in 10.0 mi NW 3.5 mph - N/A   Clear
2:35 PM 76.3 °F 46.2 °F 34% 30.10 in 10.0 mi WSW 6.9 mph - N/A   Clear
2:55 PM 77.0 °F 47.3 °F 35% 30.10 in 10.0 mi NNW 5.8 mph - N/A   Scattered Clouds
3:15 PM 76.6 °F 46.4 °F 34% 30.10 in 10.0 mi Calm Calm - N/A   Clear
3:35 PM 78.1 °F 48.2 °F 35% 30.10 in 10.0 mi Calm Calm - N/A   Clear
3:55 PM 77.5 °F 45.7 °F 32% 30.09 in 10.0 mi Calm Calm - N/A   Scattered Clouds
4:15 PM 78.3 °F 46.8 °F 33% 30.09 in 10.0 mi Calm Calm - N/A   Clear
4:35 PM 78.4 °F 45.0 °F 30% 30.09 in 10.0 mi Calm Calm - N/A   Scattered Clouds
4:55 PM 76.6 °F 49.6 °F 39% 30.10 in 10.0 mi NNE 12.7 mph 18.4 mph N/A   Mostly Cloudy
5:15 PM 74.7 °F 50.5 °F 43% 30.10 in 10.0 mi NNE 8.1 mph - N/A   Scattered Clouds
5:35 PM 75.4 °F 50.0 °F 41% 30.10 in 10.0 mi NNE 8.1 mph - N/A   Clear
5:55 PM 75.7 °F 47.1 °F 36% 30.10 in 10.0 mi NE 9.2 mph 16.1 mph N/A   Clear
6:15 PM 74.1 °F 47.7 °F 39% 30.11 in 10.0 mi NE 12.7 mph - N/A   Clear
6:35 PM 73.6 °F 48.6 °F 41% 30.11 in 10.0 mi NE 11.5 mph - N/A   Mostly Cloudy
6:55 PM 70.9 °F 48.6 °F 45% 30.12 in 10.0 mi NE 11.5 mph 16.1 mph N/A   Overcast
7:15 PM 68.9 °F 48.2 °F 48% 30.12 in 10.0 mi NNE 11.5 mph 19.6 mph N/A   Mostly Cloudy
7:35 PM 67.5 °F 48.2 °F 50% 30.13 in 10.0 mi NNE 9.2 mph 18.4 mph N/A   Mostly Cloudy
7:55 PM 65.3 °F 47.3 °F 52% 30.14 in 10.0 mi NNE 11.5 mph 17.3 mph N/A   Mostly Cloudy
8:15 PM 64.2 °F 47.3 °F 54% 30.15 in 10.0 mi NNE 10.4 mph - N/A   Mostly Cloudy
8:35 PM 63.5 °F 47.8 °F 57% 30.16 in 10.0 mi NE 13.8 mph 17.3 mph N/A   Mostly Cloudy
8:55 PM 61.3 °F 46.2 °F 58% 30.18 in 10.0 mi NE 17.3 mph 21.9 mph N/A   Mostly Cloudy
9:35 PM 56.8 °F 41.4 °F 56% 30.21 in 10.0 mi NNE 11.5 mph - N/A   Scattered Clouds
9:55 PM 55.8 °F 39.7 °F 55% 30.22 in 10.0 mi NNE 12.7 mph 17.3 mph N/A   Mostly Cloudy
10:15 PM 55.0 °F 38.5 °F 54% 30.22 in 10.0 mi NNE 15.0 mph 24.2 mph N/A   Overcast
10:35 PM 54.0 °F 38.1 °F 55% 30.22 in 10.0 mi NNE 10.4 mph 18.4 mph N/A   Mostly Cloudy
10:55 PM 53.6 °F 37.8 °F 55% 30.23 in 10.0 mi NNE 13.8 mph 20.7 mph N/A   Mostly Cloudy
11:15 PM 52.7 °F 36.9 °F 55% 30.24 in 10.0 mi NNE 11.5 mph 21.9 mph N/A   Overcast
11:35 PM 52.2 °F 36.7 °F 56% 30.24 in 10.0 mi NNE 15.0 mph 21.9 mph N/A   Overcast
11:55 PM 51.8 °F 36.1 °F 55% 30.24 in 10.0 mi NNE 13.8 mph 19.6 mph N/A   Overcast